Time,TemperatureF,DewpointF,PressureIn,WindDirection,WindDirectionDegrees,WindSpeedMPH,WindSpeedGustMPH,Humidity,HourlyPrecipIn,Conditions,Clouds,dailyrainin,SoftwareType,DateUTC
2013-10-05 00:01:00,59.4,59.4,30.04,NE,44,2.2,3.1,100,0.00,,,0.00,VWS V14.01,2013-10-05 04:01:00,
2013-10-05 00:02:00,59.4,59.4,30.04,SE,130,4.0,4.0,100,0.00,,,0.00,VWS V14.01,2013-10-05 04:02:00,
2013-10-05 00:04:00,59.4,59.4,30.04,ENE,75,4.0,4.0,100,0.00,,,0.00,VWS V14.01,2013-10-05 04:04:00,
2013-10-05 00:05:00,59.4,59.4,30.04,ENE,67,2.7,2.7,100,0.00,,,0.00,VWS V14.01,2013-10-05 04:05:00,
2013-10-05 00:08:00,59.4,59.4,30.04,ENE,73,2.2,4.0,100,0.00,,,0.00,VWS V14.01,2013-10-05 04:08:00,
2013-10-05 00:10:00,59.4,59.4,30.04,East,100,0.0,3.1,100,0.00,,,0.00,VWS V14.01,2013-10-05 04:10:00,
2013-10-05 00:15:00,59.4,59.4,30.01,NE,46,3.6,3.6,100,0.00,,,0.00,VWS V14.01,2013-10-05 04:15:00,
2013-10-05 00:20:00,59.4,59.4,30.01,NE,49,5.4,5.4,100,0.00,,,0.00,VWS V14.01,2013-10-05 04:20:00,
2013-10-05 00:25:00,59.4,59.4,30.01,NE,48,4.0,4.0,100,0.00,,,0.00,VWS V14.01,2013-10-05 04:25:00,
2013-10-05 00:30:00,59.4,59.4,30.04,ESE,121,0.0,0.0,100,0.00,,,0.00,VWS V14.01,2013-10-05 04:30:00,
2013-10-05 00:35:00,59.4,59.4,30.04,ENE,64,0.0,2.7,100,0.00,,,0.00,VWS V14.01,2013-10-05 04:35:00,
2013-10-05 00:40:00,59.2,59.2,30.04,SSE,154,0.0,0.0,100,0.00,,,0.00,VWS V14.01,2013-10-05 04:40:00,
2013-10-05 00:45:00,59.2,59.2,30.04,East,96,0.0,3.1,100,0.00,,,0.00,VWS V14.01,2013-10-05 04:45:00,
2013-10-05 00:50:00,59.2,59.2,30.04,ENE,62,0.0,0.0,100,0.00,,,0.00,VWS V14.01,2013-10-05 04:50:00,
2013-10-05 00:55:00,59.2,59.2,30.04,ENE,74,0.0,0.0,100,0.00,,,0.00,VWS V14.01,2013-10-05 04:55:00,
2013-10-05 01:00:00,59.2,59.2,30.04,NE,48,2.7,3.6,100,0.00,,,0.00,VWS V14.01,2013-10-05 05:00:00,
2013-10-05 01:05:00,59.2,59.2,30.04,East,87,0.0,2.7,100,0.00,,,0.00,VWS V14.01,2013-10-05 05:05:00,
2013-10-05 01:10:00,59.2,59.2,30.04,ENE,68,2.7,4.0,100,0.00,,,0.00,VWS V14.01,2013-10-05 05:10:00,
2013-10-05 01:15:00,59.2,59.2,30.04,East,96,3.1,3.6,100,0.00,,,0.00,VWS V14.01,2013-10-05 05:15:00,
2013-10-05 01:20:00,59.2,59.2,30.04,East,84,0.0,3.6,100,0.00,,,0.00,VWS V14.01,2013-10-05 05:20:00,
2013-10-05 01:25:00,59.2,59.2,30.04,East,91,0.0,3.1,100,0.00,,,0.00,VWS V14.01,2013-10-05 05:25:00,
2013-10-05 01:30:00,59.2,59.2,30.04,East,79,2.7,4.0,100,0.00,,,0.00,VWS V14.01,2013-10-05 05:30:00,
2013-10-05 01:36:00,59.2,59.2,30.04,ENE,68,0.0,3.1,100,0.00,,,0.00,VWS V14.01,2013-10-05 05:36:00,
2013-10-05 01:41:00,59.2,59.2,30.04,East,81,0.0,3.1,100,0.00,,,0.00,VWS V14.01,2013-10-05 05:41:00,
2013-10-05 01:46:00,59.2,59.2,30.04,East,82,2.2,3.1,100,0.00,,,0.00,VWS V14.01,2013-10-05 05:46:00,
2013-10-05 01:51:00,59.2,59.2,30.04,East,79,3.6,3.6,100,0.00,,,0.00,VWS V14.01,2013-10-05 05:51:00,
2013-10-05 01:56:00,59.2,59.2,30.04,East,83,0.0,4.0,100,0.00,,,0.00,VWS V14.01,2013-10-05 05:56:00,
2013-10-05 02:01:00,59.2,59.2,30.04,ENE,77,0.0,3.6,100,0.00,,,0.00,VWS V14.01,2013-10-05 06:01:00,
2013-10-05 02:06:00,59.2,59.2,30.04,ENE,77,0.0,2.7,100,0.00,,,0.00,VWS V14.01,2013-10-05 06:06:00,
2013-10-05 02:11:00,59.2,59.2,30.04,SE,136,0.0,2.7,100,0.00,,,0.00,VWS V14.01,2013-10-05 06:11:00,
2013-10-05 02:16:00,59.2,59.2,30.04,ESE,123,0.0,2.7,100,0.00,,,0.00,VWS V14.01,2013-10-05 06:16:00,
2013-10-05 02:21:00,59.2,59.2,30.04,East,79,3.1,3.1,100,0.00,,,0.00,VWS V14.01,2013-10-05 06:21:00,
2013-10-05 02:26:00,59.2,59.2,30.04,East,80,0.0,2.7,100,0.00,,,0.00,VWS V14.01,2013-10-05 06:26:00,
2013-10-05 02:31:00,59.2,59.2,30.04,ENE,72,4.0,4.5,100,0.00,,,0.00,VWS V14.01,2013-10-05 06:31:00,
2013-10-05 02:36:00,59.2,59.2,30.04,NE,52,2.7,4.9,100,0.00,,,0.00,VWS V14.01,2013-10-05 06:36:00,
2013-10-05 02:41:00,59.2,59.2,30.04,ENE,72,2.7,3.6,100,0.00,,,0.00,VWS V14.01,2013-10-05 06:41:00,
2013-10-05 02:46:00,59.2,59.2,30.04,East,92,0.0,3.1,100,0.00,,,0.00,VWS V14.01,2013-10-05 06:46:00,
2013-10-05 02:51:00,59.2,59.2,30.04,ESE,109,0.0,0.0,100,0.00,,,0.00,VWS V14.01,2013-10-05 06:51:00,
2013-10-05 02:56:00,59.2,59.2,30.04,ESE,109,0.0,0.0,100,0.00,,,0.00,VWS V14.01,2013-10-05 06:56:00,
2013-10-05 03:01:00,59.2,59.2,30.04,ESE,109,2.2,2.2,100,0.00,,,0.00,VWS V14.01,2013-10-05 07:01:00,
2013-10-05 03:06:00,59.2,59.2,30.04,NE,52,2.7,2.7,100,0.00,,,0.00,VWS V14.01,2013-10-05 07:06:00,
2013-10-05 03:11:00,59.2,59.2,30.04,ENE,71,0.0,3.1,100,0.00,,,0.00,VWS V14.01,2013-10-05 07:11:00,
2013-10-05 03:17:00,59.2,59.2,30.04,East,88,2.2,3.1,100,0.00,,,0.00,VWS V14.01,2013-10-05 07:17:00,
2013-10-05 03:22:00,59.2,59.2,30.04,ENE,70,2.2,3.1,100,0.00,,,0.00,VWS V14.01,2013-10-05 07:22:00,
2013-10-05 03:27:00,59.0,59.0,30.04,ENE,71,2.7,4.0,100,0.00,,,0.00,VWS V14.01,2013-10-05 07:27:00,
2013-10-05 03:32:00,59.0,59.0,30.01,SSE,163,0.0,4.0,100,0.00,,,0.00,VWS V14.01,2013-10-05 07:32:00,
2013-10-05 03:37:00,59.2,59.2,30.01,ENE,65,0.0,3.1,100,0.00,,,0.00,VWS V14.01,2013-10-05 07:37:00,
2013-10-05 03:42:00,59.0,59.0,30.01,East,82,2.2,3.6,100,0.00,,,0.00,VWS V14.01,2013-10-05 07:42:00,
2013-10-05 03:47:00,59.0,59.0,30.01,ENE,62,2.2,3.6,100,0.00,,,0.00,VWS V14.01,2013-10-05 07:47:00,
2013-10-05 03:52:00,59.0,59.0,30.01,ENE,67,2.7,5.4,100,0.00,,,0.00,VWS V14.01,2013-10-05 07:52:00,
2013-10-05 03:57:00,59.0,59.0,30.01,NE,48,2.2,3.6,100,0.00,,,0.00,VWS V14.01,2013-10-05 07:57:00,
2013-10-05 04:02:00,59.0,59.0,30.01,ENE,59,3.1,4.0,100,0.00,,,0.00,VWS V14.01,2013-10-05 08:02:00,
2013-10-05 04:07:00,59.0,59.0,30.01,ENE,63,4.0,5.8,100,0.00,,,0.00,VWS V14.01,2013-10-05 08:07:00,
2013-10-05 04:12:00,59.0,59.0,30.01,East,79,0.0,2.7,100,0.00,,,0.00,VWS V14.01,2013-10-05 08:12:00,
2013-10-05 04:17:00,59.0,59.0,30.04,ENE,74,3.1,3.6,100,0.00,,,0.00,VWS V14.01,2013-10-05 08:17:00,
2013-10-05 04:22:00,59.0,59.0,30.04,ENE,77,3.1,3.6,100,0.00,,,0.00,VWS V14.01,2013-10-05 08:22:00,
2013-10-05 04:27:00,58.8,58.8,30.04,NE,53,4.0,4.9,100,0.00,,,0.00,VWS V14.01,2013-10-05 08:27:00,
2013-10-05 04:32:00,58.8,58.8,30.04,ESE,103,4.9,6.3,100,0.00,,,0.00,VWS V14.01,2013-10-05 08:32:00,
2013-10-05 04:37:00,58.8,58.8,30.04,ENE,68,3.1,6.3,100,0.00,,,0.00,VWS V14.01,2013-10-05 08:37:00,
2013-10-05 04:42:00,58.8,58.8,30.04,East,94,2.2,6.3,100,0.00,,,0.00,VWS V14.01,2013-10-05 08:42:00,
2013-10-05 04:47:00,58.8,58.8,30.04,ENE,64,3.1,6.3,100,0.00,,,0.00,VWS V14.01,2013-10-05 08:47:00,
2013-10-05 04:52:00,58.6,58.6,30.04,ENE,71,5.4,6.3,100,0.00,,,0.00,VWS V14.01,2013-10-05 08:52:00,
2013-10-05 04:57:00,58.6,58.6,30.04,ENE,58,5.4,5.4,100,0.00,,,0.00,VWS V14.01,2013-10-05 08:57:00,
2013-10-05 05:02:00,58.6,58.6,30.04,East,98,4.0,5.4,100,0.00,,-RA,0.00,VWS V14.01,2013-10-05 09:02:00,
2013-10-05 05:07:00,58.6,58.6,30.04,ENE,77,3.6,4.9,100,0.00,,-RA,0.00,VWS V14.01,2013-10-05 09:07:00,
2013-10-05 05:12:00,58.6,58.6,30.04,ENE,75,2.2,4.0,100,0.00,,-RA,0.00,VWS V14.01,2013-10-05 09:12:00,
2013-10-05 05:17:00,58.6,58.6,30.04,East,86,4.0,4.0,100,0.00,,-RA,0.00,VWS V14.01,2013-10-05 09:17:00,
2013-10-05 05:22:00,58.6,58.6,30.04,ENE,74,4.0,4.0,100,0.00,,-RA,0.00,VWS V14.01,2013-10-05 09:22:00,
2013-10-05 05:27:00,58.6,58.6,30.04,East,95,0.0,4.0,100,0.00,,-RA,0.00,VWS V14.01,2013-10-05 09:27:00,
2013-10-05 05:32:00,58.6,58.6,30.04,East,98,2.7,4.0,100,0.00,,-RA,0.00,VWS V14.01,2013-10-05 09:32:00,
2013-10-05 05:37:00,58.6,58.6,30.04,ENE,73,0.0,5.8,100,0.00,,,0.00,VWS V14.01,2013-10-05 09:37:00,
2013-10-05 05:42:00,58.6,58.6,30.01,ESE,103,5.8,6.3,100,0.00,,,0.00,VWS V14.01,2013-10-05 09:42:00,
2013-10-05 05:47:00,58.6,58.6,30.01,ENE,64,3.6,5.8,100,0.00,,,0.00,VWS V14.01,2013-10-05 09:47:00,
2013-10-05 05:52:00,58.6,58.6,30.01,ENE,64,4.0,6.3,100,0.00,,,0.00,VWS V14.01,2013-10-05 09:52:00,
2013-10-05 05:58:00,58.6,58.6,30.04,ENE,76,2.7,6.3,100,0.00,,,0.00,VWS V14.01,2013-10-05 09:58:00,
2013-10-05 06:03:00,58.6,58.6,30.04,ESE,114,0.0,4.0,100,0.00,,,0.00,VWS V14.01,2013-10-05 10:03:00,
2013-10-05 06:08:00,58.6,58.6,30.04,ENE,67,5.8,6.3,100,0.00,,,0.00,VWS V14.01,2013-10-05 10:08:00,
2013-10-05 06:13:00,58.5,58.5,30.04,ENE,76,3.6,4.9,100,0.00,,,0.00,VWS V14.01,2013-10-05 10:13:00,
2013-10-05 06:18:00,58.6,58.6,30.04,ENE,78,5.4,5.4,100,0.00,,,0.00,VWS V14.01,2013-10-05 10:18:00,
2013-10-05 06:23:00,58.6,58.6,30.04,East,86,4.0,5.4,100,0.00,,,0.00,VWS V14.01,2013-10-05 10:23:00,
2013-10-05 06:28:00,58.5,58.5,30.04,ENE,77,2.7,4.0,100,0.00,,,0.00,VWS V14.01,2013-10-05 10:28:00,
2013-10-05 06:33:00,58.5,58.5,30.04,East,98,0.0,6.7,100,0.00,,,0.00,VWS V14.01,2013-10-05 10:33:00,
2013-10-05 06:38:00,58.5,58.5,30.04,East,82,3.1,6.7,100,0.00,,,0.00,VWS V14.01,2013-10-05 10:38:00,
2013-10-05 06:43:00,58.5,58.5,30.04,NE,44,3.1,3.1,100,0.00,,,0.00,VWS V14.01,2013-10-05 10:43:00,
2013-10-05 06:48:00,58.6,58.6,30.04,East,79,0.0,0.0,100,0.00,,,0.00,VWS V14.01,2013-10-05 10:48:00,
2013-10-05 06:53:00,58.6,58.6,30.04,East,81,2.7,4.0,100,0.00,,,0.00,VWS V14.01,2013-10-05 10:53:00,
2013-10-05 06:58:00,58.5,58.5,30.04,ENE,68,2.7,4.9,100,0.00,,,0.00,VWS V14.01,2013-10-05 10:58:00,
2013-10-05 07:03:00,58.5,58.5,30.04,East,101,3.6,5.8,100,0.00,,-RA,0.00,VWS V14.01,2013-10-05 11:03:00,
2013-10-05 07:08:00,58.5,58.5,30.04,ENE,63,2.2,5.4,100,0.00,,-RA,0.00,VWS V14.01,2013-10-05 11:08:00,
2013-10-05 07:13:00,58.5,58.5,30.04,East,83,5.8,5.8,100,0.00,,-RA,0.00,VWS V14.01,2013-10-05 11:13:00,
2013-10-05 07:18:00,58.5,58.5,30.04,ENE,67,2.2,4.9,100,0.00,,-RA,0.00,VWS V14.01,2013-10-05 11:18:00,
2013-10-05 07:23:00,58.5,58.5,30.04,ENE,74,2.2,5.4,100,0.00,,-RA,0.00,VWS V14.01,2013-10-05 11:23:00,
2013-10-05 07:28:00,58.5,58.5,30.04,East,88,4.9,4.9,100,0.00,,-RA,0.00,VWS V14.01,2013-10-05 11:28:00,
2013-10-05 07:33:00,58.5,58.5,30.04,ENE,75,3.1,3.6,100,0.00,,,0.00,VWS V14.01,2013-10-05 11:33:00,
2013-10-05 07:38:00,58.5,58.5,30.04,East,81,3.1,3.1,100,0.00,,,0.00,VWS V14.01,2013-10-05 11:38:00,
2013-10-05 07:43:00,58.5,58.5,30.04,ENE,76,2.2,2.2,100,0.00,,,0.00,VWS V14.01,2013-10-05 11:43:00,
2013-10-05 07:48:00,58.5,58.5,30.04,East,95,2.7,3.6,100,0.00,,,0.00,VWS V14.01,2013-10-05 11:48:00,
2013-10-05 07:53:00,58.5,58.5,30.04,ENE,75,2.7,5.4,100,0.00,,,0.00,VWS V14.01,2013-10-05 11:53:00,
2013-10-05 07:58:00,58.5,58.5,30.04,NE,40,4.0,6.3,100,0.04,,,0.04,VWS V14.01,2013-10-05 11:58:00,
2013-10-05 08:03:00,58.3,58.3,30.04,ENE,73,3.1,3.6,100,0.04,,-RA,0.04,VWS V14.01,2013-10-05 12:03:00,
2013-10-05 08:08:00,58.3,58.3,30.04,NE,44,3.1,3.1,100,0.04,,-RA,0.04,VWS V14.01,2013-10-05 12:08:00,
2013-10-05 08:13:00,58.3,58.3,30.07,ESE,102,4.9,7.6,100,0.04,,-RA,0.04,VWS V14.01,2013-10-05 12:13:00,
2013-10-05 08:18:00,58.1,58.1,30.07,ENE,77,3.1,6.3,100,0.08,,-RA,0.08,VWS V14.01,2013-10-05 12:18:00,
2013-10-05 08:23:00,58.1,58.1,30.07,ESE,103,3.1,5.8,100,0.08,,-RA,0.08,VWS V14.01,2013-10-05 12:23:00,
2013-10-05 08:28:00,58.1,58.1,30.07,ENE,67,6.3,6.3,100,0.08,,-RA,0.08,VWS V14.01,2013-10-05 12:28:00,
2013-10-05 08:33:00,58.1,58.1,30.07,ENE,73,2.7,4.0,100,0.08,,-RA,0.08,VWS V14.01,2013-10-05 12:33:00,
2013-10-05 08:38:00,58.1,58.1,30.07,East,83,3.1,4.9,100,0.12,,-RA,0.12,VWS V14.01,2013-10-05 12:38:00,
2013-10-05 08:43:00,58.1,58.1,30.04,East,87,2.2,2.7,100,0.12,,-RA,0.12,VWS V14.01,2013-10-05 12:43:00,
2013-10-05 08:48:00,58.1,58.1,30.04,ENE,72,3.1,3.6,100,0.12,,-RA,0.12,VWS V14.01,2013-10-05 12:48:00,
2013-10-05 08:53:00,58.1,58.1,30.04,East,85,5.4,5.4,100,0.16,,-RA,0.16,VWS V14.01,2013-10-05 12:53:00,
2013-10-05 08:58:00,58.1,58.1,30.04,ESE,118,0.0,2.7,100,0.16,,-RA,0.16,VWS V14.01,2013-10-05 12:58:00,
2013-10-05 09:03:00,58.1,58.1,30.04,East,98,3.1,3.1,100,0.12,,OVC090,0.16,VWS V14.01,2013-10-05 13:03:00,
2013-10-05 09:08:00,58.3,58.3,30.04,NE,43,2.7,4.0,100,0.12,,OVC090,0.16,VWS V14.01,2013-10-05 13:08:00,
2013-10-05 09:13:00,58.5,58.5,30.04,ENE,57,4.9,6.3,100,0.12,,OVC090,0.16,VWS V14.01,2013-10-05 13:13:00,
2013-10-05 09:18:00,58.5,58.5,30.04,East,84,3.6,5.4,100,0.12,,OVC090,0.16,VWS V14.01,2013-10-05 13:18:00,
2013-10-05 09:24:00,58.5,58.5,30.04,NE,54,6.3,6.3,100,0.08,,OVC090,0.16,VWS V14.01,2013-10-05 13:24:00,
2013-10-05 09:29:00,58.5,58.5,30.04,ENE,73,2.7,4.0,100,0.08,,OVC090,0.16,VWS V14.01,2013-10-05 13:29:00,
2013-10-05 09:34:00,58.5,58.5,30.04,ENE,71,3.1,3.1,100,0.08,,OVC090,0.16,VWS V14.01,2013-10-05 13:34:00,
2013-10-05 09:39:00,58.5,58.5,30.04,ESE,116,3.1,5.8,100,0.04,,OVC090,0.16,VWS V14.01,2013-10-05 13:39:00,
2013-10-05 09:44:00,58.6,58.6,30.04,East,87,4.9,4.9,100,0.04,,OVC090,0.16,VWS V14.01,2013-10-05 13:44:00,
2013-10-05 09:49:00,58.6,58.6,30.04,ENE,62,3.6,3.6,100,0.04,,OVC090,0.16,VWS V14.01,2013-10-05 13:49:00,
2013-10-05 09:54:00,58.6,58.6,30.04,ESE,110,4.9,5.8,100,0.04,,OVC090,0.16,VWS V14.01,2013-10-05 13:54:00,
2013-10-05 09:59:00,58.8,58.8,30.04,East,94,4.0,4.5,100,0.00,,OVC090,0.16,VWS V14.01,2013-10-05 13:59:00,
2013-10-05 10:04:00,58.8,58.8,30.04,East,81,0.0,3.6,100,0.00,,OVC005,0.16,VWS V14.01,2013-10-05 14:04:00,
2013-10-05 10:09:00,58.8,58.8,30.04,NNE,31,2.7,2.7,100,0.00,,OVC005,0.16,VWS V14.01,2013-10-05 14:09:00,
2013-10-05 10:14:00,59.0,59.0,30.07,ENE,64,3.6,3.6,100,0.00,,OVC005,0.16,VWS V14.01,2013-10-05 14:14:00,
2013-10-05 10:19:00,59.0,59.0,30.07,East,79,2.7,4.0,100,0.00,,OVC005,0.16,VWS V14.01,2013-10-05 14:19:00,
2013-10-05 10:24:00,59.2,59.2,30.07,SE,131,3.1,4.0,100,0.00,,OVC005,0.16,VWS V14.01,2013-10-05 14:24:00,
2013-10-05 10:29:00,59.4,59.4,30.07,East,81,3.1,3.1,100,0.00,,OVC005,0.16,VWS V14.01,2013-10-05 14:29:00,
2013-10-05 10:34:00,59.4,59.4,30.07,East,89,4.0,4.5,100,0.00,,OVC004,0.16,VWS V14.01,2013-10-05 14:34:00,
2013-10-05 10:39:00,59.4,59.4,30.07,ENE,78,3.6,4.0,100,0.00,,OVC004,0.16,VWS V14.01,2013-10-05 14:39:00,
2013-10-05 10:44:00,59.5,59.5,30.04,ESE,108,2.2,3.6,100,0.00,,OVC004,0.16,VWS V14.01,2013-10-05 14:44:00,
2013-10-05 10:49:00,59.7,59.7,30.04,East,79,2.7,3.6,100,0.00,,OVC004,0.16,VWS V14.01,2013-10-05 14:49:00,
2013-10-05 10:54:00,59.5,59.5,30.04,ENE,78,4.9,4.9,100,0.00,,OVC004,0.16,VWS V14.01,2013-10-05 14:54:00,
2013-10-05 10:59:00,59.7,59.7,30.04,ENE,59,3.1,5.8,100,0.00,,OVC004,0.16,VWS V14.01,2013-10-05 14:59:00,
2013-10-05 11:04:00,59.9,59.9,30.04,NE,55,2.7,5.8,100,0.00,,OVC004,0.16,VWS V14.01,2013-10-05 15:04:00,
2013-10-05 11:09:00,59.9,59.9,30.04,East,79,0.0,4.9,100,0.00,,OVC004,0.16,VWS V14.01,2013-10-05 15:09:00,
2013-10-05 11:14:00,59.9,59.9,30.04,East,80,4.0,5.4,100,0.00,,OVC004,0.16,VWS V14.01,2013-10-05 15:14:00,
2013-10-05 11:19:00,59.9,59.9,30.04,NE,53,5.4,5.8,100,0.00,,OVC004,0.16,VWS V14.01,2013-10-05 15:19:00,
2013-10-05 11:24:00,59.9,59.9,30.04,ENE,66,4.0,5.8,100,0.00,,OVC004,0.16,VWS V14.01,2013-10-05 15:24:00,
2013-10-05 11:29:00,59.9,59.9,30.04,NE,49,4.0,7.2,100,0.00,,OVC004,0.16,VWS V14.01,2013-10-05 15:29:00,
2013-10-05 11:34:00,59.7,59.7,30.04,ESE,113,4.0,4.0,100,0.00,,OVC004,0.16,VWS V14.01,2013-10-05 15:34:00,
2013-10-05 11:39:00,59.7,59.7,30.04,ENE,76,5.8,5.8,100,0.00,,OVC004,0.16,VWS V14.01,2013-10-05 15:39:00,
2013-10-05 11:44:00,59.9,59.9,30.04,SE,143,0.0,5.4,100,0.00,,OVC004,0.16,VWS V14.01,2013-10-05 15:44:00,
2013-10-05 11:49:00,60.1,60.1,30.04,ENE,74,4.9,5.4,100,0.00,,OVC004,0.16,VWS V14.01,2013-10-05 15:49:00,
2013-10-05 11:54:00,60.3,60.3,30.04,ENE,73,4.0,4.0,100,0.00,,OVC004,0.16,VWS V14.01,2013-10-05 15:54:00,
2013-10-05 11:59:00,60.4,60.4,30.04,ENE,76,2.7,5.4,100,0.00,,OVC004,0.16,VWS V14.01,2013-10-05 15:59:00,
2013-10-05 12:04:00,60.4,60.4,30.04,ENE,74,5.8,6.3,100,0.00,,OVC005,0.16,VWS V14.01,2013-10-05 16:04:00,
2013-10-05 12:09:00,60.4,60.4,30.04,ENE,68,5.4,5.8,100,0.00,,OVC005,0.16,VWS V14.01,2013-10-05 16:09:00,
2013-10-05 12:14:00,60.6,60.6,30.04,East,84,2.7,6.3,100,0.00,,OVC005,0.16,VWS V14.01,2013-10-05 16:14:00,
2013-10-05 12:19:00,60.8,60.8,30.04,NE,45,6.7,8.1,100,0.00,,OVC005,0.16,VWS V14.01,2013-10-05 16:19:00,
2013-10-05 12:24:00,60.6,60.6,30.04,ENE,59,4.0,8.1,100,0.00,,OVC005,0.16,VWS V14.01,2013-10-05 16:24:00,
2013-10-05 12:29:00,60.8,60.8,30.04,ESE,117,2.7,5.4,100,0.00,,OVC005,0.16,VWS V14.01,2013-10-05 16:29:00,
2013-10-05 12:34:00,61.2,61.2,30.04,East,98,3.6,4.9,100,0.00,,OVC005,0.16,VWS V14.01,2013-10-05 16:34:00,
2013-10-05 12:39:00,61.3,61.3,30.04,East,92,4.9,7.6,100,0.00,,OVC005,0.16,VWS V14.01,2013-10-05 16:39:00,
2013-10-05 12:44:00,61.3,61.3,30.04,East,84,4.5,4.9,100,0.00,,OVC005,0.16,VWS V14.01,2013-10-05 16:44:00,
2013-10-05 12:50:00,61.7,61.7,30.04,ESE,109,3.1,5.4,100,0.00,,OVC005,0.16,VWS V14.01,2013-10-05 16:50:00,
2013-10-05 12:55:00,61.9,61.9,30.04,ENE,71,3.6,4.9,100,0.00,,OVC005,0.16,VWS V14.01,2013-10-05 16:55:00,
2013-10-05 13:00:00,61.9,61.9,30.04,ESE,107,2.2,4.9,100,0.00,,OVC005,0.16,VWS V14.01,2013-10-05 17:00:00,
2013-10-05 13:05:00,61.9,61.9,30.04,NE,46,4.0,5.8,100,0.00,,OVC007,0.16,VWS V14.01,2013-10-05 17:05:00,
2013-10-05 13:10:00,61.9,61.9,30.04,ESE,102,3.1,4.9,100,0.00,,OVC007,0.16,VWS V14.01,2013-10-05 17:10:00,
2013-10-05 13:15:00,61.9,61.9,30.01,NNE,28,3.6,3.6,100,0.00,,OVC007,0.16,VWS V14.01,2013-10-05 17:15:00,
2013-10-05 13:20:00,61.9,61.9,30.01,ESE,117,2.7,3.1,100,0.00,,OVC007,0.16,VWS V14.01,2013-10-05 17:20:00,
2013-10-05 13:25:00,61.9,61.9,30.01,ENE,64,3.6,4.0,100,0.00,,OVC007,0.16,VWS V14.01,2013-10-05 17:25:00,
2013-10-05 13:30:00,61.9,61.9,30.01,NE,45,5.4,5.8,100,0.00,,OVC007,0.16,VWS V14.01,2013-10-05 17:30:00,
2013-10-05 13:35:00,61.9,61.9,30.01,ENE,69,4.0,8.1,100,0.00,,OVC007,0.16,VWS V14.01,2013-10-05 17:35:00,
2013-10-05 13:40:00,62.1,62.1,30.01,ENE,78,4.0,6.3,100,0.00,,OVC007,0.16,VWS V14.01,2013-10-05 17:40:00,
2013-10-05 13:45:00,62.1,62.1,30.01,East,95,3.1,3.1,100,0.00,,OVC007,0.16,VWS V14.01,2013-10-05 17:45:00,
2013-10-05 13:50:00,61.9,61.9,30.01,ENE,65,5.8,7.6,100,0.00,,OVC007,0.16,VWS V14.01,2013-10-05 17:50:00,
2013-10-05 13:55:00,61.7,61.7,30.01,ENE,63,5.8,5.8,100,0.00,,OVC007,0.16,VWS V14.01,2013-10-05 17:55:00,
2013-10-05 14:00:00,61.7,61.7,30.01,ENE,57,4.9,5.4,100,0.00,,OVC007,0.16,VWS V14.01,2013-10-05 18:00:00,
2013-10-05 14:05:00,61.5,61.5,30.01,NNE,24,6.3,6.3,100,0.00,,OVC007,0.16,VWS V14.01,2013-10-05 18:05:00,
2013-10-05 14:10:00,61.3,61.3,30.01,ENE,67,6.3,8.3,100,0.00,,OVC007,0.16,VWS V14.01,2013-10-05 18:10:00,
2013-10-05 14:15:00,61.5,61.5,30.01,East,81,3.6,4.0,100,0.00,,OVC007,0.16,VWS V14.01,2013-10-05 18:15:00,
2013-10-05 14:20:00,61.5,61.5,30.01,ENE,61,0.0,3.6,100,0.00,,OVC007,0.16,VWS V14.01,2013-10-05 18:20:00,
2013-10-05 14:25:00,61.7,61.7,30.01,North,357,3.6,3.6,100,0.00,,OVC007,0.16,VWS V14.01,2013-10-05 18:25:00,
2013-10-05 14:30:00,61.5,61.5,30.04,NE,42,2.7,6.3,100,0.00,,OVC007,0.16,VWS V14.01,2013-10-05 18:30:00,
2013-10-05 14:35:00,61.3,61.3,30.04,ENE,58,3.1,6.3,100,0.00,,OVC007,0.16,VWS V14.01,2013-10-05 18:35:00,
2013-10-05 14:40:00,61.3,61.3,30.04,North,8,5.4,5.4,100,0.00,,OVC007,0.16,VWS V14.01,2013-10-05 18:40:00,
2013-10-05 14:45:00,61.2,61.2,30.04,East,90,4.9,6.3,100,0.00,,OVC007,0.16,VWS V14.01,2013-10-05 18:45:00,
2013-10-05 14:50:00,61.2,61.2,30.04,North,8,3.6,5.8,100,0.00,,OVC007,0.16,VWS V14.01,2013-10-05 18:50:00,
2013-10-05 14:55:00,61.2,61.2,30.04,NE,35,2.7,5.8,100,0.00,,OVC007,0.16,VWS V14.01,2013-10-05 18:55:00,
2013-10-05 15:00:00,61.0,61.0,30.04,NE,37,4.0,7.2,100,0.00,,OVC006,0.16,VWS V14.01,2013-10-05 19:00:00,
2013-10-05 15:05:00,61.0,61.0,30.04,NNE,32,2.7,3.6,100,0.00,,OVC006,0.16,VWS V14.01,2013-10-05 19:05:00,
2013-10-05 15:10:00,61.0,61.0,30.04,NNE,23,3.1,4.0,100,0.00,,OVC006,0.16,VWS V14.01,2013-10-05 19:10:00,
2013-10-05 15:15:00,60.8,60.8,30.04,ENE,69,4.9,6.3,100,0.00,,OVC006,0.16,VWS V14.01,2013-10-05 19:15:00,
2013-10-05 15:20:00,60.8,60.8,30.04,ENE,57,2.7,2.7,100,0.00,,OVC006,0.16,VWS V14.01,2013-10-05 19:20:00,
2013-10-05 15:25:00,60.8,60.8,30.04,ENE,72,7.2,7.2,100,0.00,,OVC006,0.16,VWS V14.01,2013-10-05 19:25:00,
2013-10-05 15:30:00,60.8,60.8,30.01,NE,38,5.8,6.3,100,0.00,,OVC006,0.16,VWS V14.01,2013-10-05 19:30:00,
2013-10-05 15:35:00,60.6,60.6,30.01,NE,48,8.3,8.3,100,0.00,,OVC006,0.16,VWS V14.01,2013-10-05 19:35:00,
2013-10-05 15:41:00,60.4,60.4,30.01,NE,45,4.0,8.1,100,0.00,,OVC006,0.16,VWS V14.01,2013-10-05 19:41:00,
2013-10-05 15:46:00,60.3,60.3,30.01,NE,37,7.6,10.5,100,0.00,,OVC006,0.16,VWS V14.01,2013-10-05 19:46:00,
2013-10-05 15:51:00,60.3,60.3,30.01,ENE,62,6.3,8.3,100,0.00,,OVC006,0.16,VWS V14.01,2013-10-05 19:51:00,
2013-10-05 15:56:00,60.3,60.3,30.01,NNE,12,4.0,5.4,100,0.00,,OVC006,0.16,VWS V14.01,2013-10-05 19:56:00,
2013-10-05 16:01:00,60.3,60.3,30.01,NE,54,2.7,4.0,100,0.00,,,0.16,VWS V14.01,2013-10-05 20:01:00,
2013-10-05 16:06:00,60.3,60.3,30.01,NE,55,3.6,5.4,100,0.00,,,0.16,VWS V14.01,2013-10-05 20:06:00,
2013-10-05 16:11:00,60.1,60.1,30.01,East,81,5.8,5.8,100,0.00,,,0.16,VWS V14.01,2013-10-05 20:11:00,
2013-10-05 16:16:00,60.1,60.1,30.01,NE,35,5.4,7.6,100,0.00,,,0.16,VWS V14.01,2013-10-05 20:16:00,
2013-10-05 16:21:00,60.1,60.1,30.01,NE,36,5.8,6.3,100,0.00,,,0.16,VWS V14.01,2013-10-05 20:21:00,
2013-10-05 16:26:00,60.1,60.1,30.01,ENE,59,4.0,5.8,100,0.00,,,0.16,VWS V14.01,2013-10-05 20:26:00,
2013-10-05 16:31:00,59.9,59.9,30.01,ENE,57,5.8,6.7,100,0.00,,,0.16,VWS V14.01,2013-10-05 20:31:00,
2013-10-05 16:36:00,59.9,59.9,30.01,ENE,67,2.7,8.7,100,0.00,,,0.16,VWS V14.01,2013-10-05 20:36:00,
2013-10-05 16:41:00,59.7,59.7,30.01,ENE,68,4.9,8.1,100,0.00,,,0.16,VWS V14.01,2013-10-05 20:41:00,
2013-10-05 16:46:00,59.7,59.7,30.01,ENE,73,3.6,8.3,100,0.00,,,0.16,VWS V14.01,2013-10-05 20:46:00,
2013-10-05 16:51:00,59.7,59.7,30.01,NE,51,5.4,6.3,100,0.00,,,0.16,VWS V14.01,2013-10-05 20:51:00,
2013-10-05 16:56:00,59.7,59.7,30.01,NE,46,5.4,8.7,100,0.00,,,0.16,VWS V14.01,2013-10-05 20:56:00,
2013-10-05 17:01:00,59.7,59.7,30.01,NE,42,0.0,5.8,100,0.00,,,0.16,VWS V14.01,2013-10-05 21:01:00,
2013-10-05 17:06:00,59.7,59.7,30.01,NNE,27,5.8,8.1,100,0.00,,-RA,0.16,VWS V14.01,2013-10-05 21:06:00,
2013-10-05 17:11:00,59.5,59.5,30.01,ENE,60,2.2,7.2,100,0.00,,-RA,0.16,VWS V14.01,2013-10-05 21:11:00,
2013-10-05 17:16:00,59.4,59.4,30.01,ENE,77,2.7,8.1,100,0.00,,-RA,0.16,VWS V14.01,2013-10-05 21:16:00,
2013-10-05 17:21:00,59.4,59.4,30.01,ENE,57,3.1,8.1,100,0.00,,-RA,0.16,VWS V14.01,2013-10-05 21:21:00,
2013-10-05 17:26:00,59.2,59.2,30.01,NE,45,4.0,8.3,100,0.00,,-RA,0.16,VWS V14.01,2013-10-05 21:26:00,
2013-10-05 17:31:00,59.2,59.2,30.01,ENE,58,3.1,4.9,100,0.00,,-RA,0.16,VWS V14.01,2013-10-05 21:31:00,
2013-10-05 17:36:00,59.2,59.2,30.01,NE,43,7.6,7.6,100,0.00,,-RA,0.16,VWS V14.01,2013-10-05 21:36:00,
2013-10-05 17:41:00,59.2,59.2,30.01,NE,45,3.1,7.2,100,0.00,,-RA,0.16,VWS V14.01,2013-10-05 21:41:00,
2013-10-05 17:46:00,59.0,59.0,30.01,NE,56,2.7,5.4,100,0.00,,-RA,0.16,VWS V14.01,2013-10-05 21:46:00,
2013-10-05 17:51:00,59.0,59.0,30.01,ENE,78,0.0,4.9,100,0.00,,-RA,0.16,VWS V14.01,2013-10-05 21:51:00,
2013-10-05 17:56:00,59.0,59.0,30.01,ENE,68,3.1,5.4,100,0.00,,-RA,0.16,VWS V14.01,2013-10-05 21:56:00,
2013-10-05 18:01:00,59.0,59.0,30.01,NE,51,0.0,5.4,100,0.00,,-RA,0.16,VWS V14.01,2013-10-05 22:01:00,
2013-10-05 18:06:00,58.8,58.8,30.01,NE,50,3.6,5.4,100,0.00,,OVC010,0.16,VWS V14.01,2013-10-05 22:06:00,
2013-10-05 18:11:00,58.8,58.8,30.01,NE,53,4.0,4.0,100,0.00,,OVC010,0.16,VWS V14.01,2013-10-05 22:11:00,
2013-10-05 18:17:00,58.8,58.8,30.01,ENE,67,2.7,3.1,100,0.00,,OVC010,0.16,VWS V14.01,2013-10-05 22:17:00,
2013-10-05 18:22:00,58.6,58.6,30.01,NE,49,6.3,6.3,100,0.00,,OVC010,0.16,VWS V14.01,2013-10-05 22:22:00,
2013-10-05 18:27:00,58.6,58.4,30.01,NNE,31,6.3,7.2,99,0.00,,OVC010,0.16,VWS V14.01,2013-10-05 22:27:00,
2013-10-05 18:32:00,58.5,57.9,30.01,ENE,57,3.6,8.1,98,0.00,,OVC010,0.16,VWS V14.01,2013-10-05 22:32:00,
2013-10-05 18:37:00,58.5,57.9,30.01,East,80,3.6,7.2,98,0.00,,OVC010,0.16,VWS V14.01,2013-10-05 22:37:00,
2013-10-05 18:42:00,58.3,57.7,30.01,NE,49,6.3,6.3,98,0.00,,OVC010,0.16,VWS V14.01,2013-10-05 22:42:00,
2013-10-05 18:47:00,58.1,57.5,30.01,East,79,4.0,6.3,98,0.00,,OVC010,0.16,VWS V14.01,2013-10-05 22:47:00,
2013-10-05 18:52:00,58.1,57.5,30.01,East,81,3.1,4.0,98,0.00,,OVC010,0.16,VWS V14.01,2013-10-05 22:52:00,
2013-10-05 18:57:00,58.1,57.5,30.01,East,87,3.6,3.6,98,0.00,,OVC010,0.16,VWS V14.01,2013-10-05 22:57:00,
2013-10-05 19:02:00,58.1,57.5,30.01,East,81,0.0,3.6,98,0.00,,OVC012,0.16,VWS V14.01,2013-10-05 23:02:00,
2013-10-05 19:07:00,58.1,57.5,30.01,ESE,118,5.4,5.4,98,0.00,,OVC012,0.16,VWS V14.01,2013-10-05 23:07:00,
2013-10-05 19:12:00,58.1,57.8,30.01,ESE,121,4.0,4.9,99,0.00,,OVC012,0.16,VWS V14.01,2013-10-05 23:12:00,
2013-10-05 19:17:00,58.1,57.8,30.01,ESE,110,0.0,3.1,99,0.00,,OVC012,0.16,VWS V14.01,2013-10-05 23:17:00,
2013-10-05 19:22:00,58.1,57.8,30.01,ENE,66,4.0,5.8,99,0.00,,OVC012,0.16,VWS V14.01,2013-10-05 23:22:00,
2013-10-05 19:27:00,57.9,57.6,30.01,East,95,0.0,0.0,99,0.00,,OVC012,0.16,VWS V14.01,2013-10-05 23:27:00,
2013-10-05 19:32:00,57.9,57.6,30.01,East,101,0.0,4.0,99,0.00,,OVC012,0.16,VWS V14.01,2013-10-05 23:32:00,
2013-10-05 19:37:00,57.9,57.9,30.01,ENE,66,2.2,4.0,100,0.00,,OVC012,0.16,VWS V14.01,2013-10-05 23:37:00,
2013-10-05 19:42:00,57.9,57.9,30.01,ESE,114,2.2,5.4,100,0.00,,OVC012,0.16,VWS V14.01,2013-10-05 23:42:00,
2013-10-05 19:47:00,57.9,57.9,30.01,ESE,106,2.7,3.6,100,0.00,,OVC012,0.16,VWS V14.01,2013-10-05 23:47:00,
2013-10-05 19:52:00,57.9,57.9,30.01,ESE,116,0.0,4.0,100,0.00,,OVC012,0.16,VWS V14.01,2013-10-05 23:52:00,
2013-10-05 19:57:00,57.7,57.7,30.01,East,100,0.0,3.1,100,0.00,,OVC012,0.16,VWS V14.01,2013-10-05 23:57:00,
2013-10-05 20:02:00,57.7,57.7,30.01,SE,136,0.0,5.4,100,0.00,,BKN130,0.16,VWS V14.01,2013-10-06 00:02:00,
2013-10-05 20:07:00,57.7,57.7,30.01,SE,146,3.1,4.0,100,0.00,,BKN130,0.16,VWS V14.01,2013-10-06 00:07:00,
2013-10-05 20:12:00,57.7,57.7,30.01,SE,130,0.0,0.0,100,0.00,,BKN130,0.16,VWS V14.01,2013-10-06 00:12:00,
2013-10-05 20:17:00,57.7,57.7,30.01,ESE,109,3.1,4.0,100,0.00,,BKN130,0.16,VWS V14.01,2013-10-06 00:17:00,
2013-10-05 20:22:00,57.7,57.7,30.01,ENE,64,5.8,5.8,100,0.00,,BKN130,0.16,VWS V14.01,2013-10-06 00:22:00,
2013-10-05 20:27:00,57.9,57.9,30.01,ESE,109,0.0,0.0,100,0.00,,BKN130,0.16,VWS V14.01,2013-10-06 00:27:00,
2013-10-05 20:32:00,57.9,57.9,30.01,ENE,68,0.0,3.6,100,0.00,,BKN130,0.16,VWS V14.01,2013-10-06 00:32:00,
2013-10-05 20:37:00,57.9,57.9,30.01,ESE,109,0.0,4.0,100,0.00,,OVC200,0.16,VWS V14.01,2013-10-06 00:37:00,
2013-10-05 20:42:00,57.9,57.9,30.01,ENE,74,0.0,4.0,100,0.00,,OVC200,0.16,VWS V14.01,2013-10-06 00:42:00,
2013-10-05 20:47:00,57.9,57.9,30.01,East,80,0.0,5.4,100,0.00,,OVC200,0.16,VWS V14.01,2013-10-06 00:47:00,
2013-10-05 20:52:00,57.9,57.9,30.01,ENE,75,0.0,2.2,100,0.00,,OVC200,0.16,VWS V14.01,2013-10-06 00:52:00,
2013-10-05 20:58:00,57.9,57.9,30.01,East,86,0.0,3.6,100,0.00,,OVC200,0.16,VWS V14.01,2013-10-06 00:58:00,
2013-10-05 21:03:00,57.9,57.9,30.01,ESE,116,0.0,3.6,100,0.00,,OVC035,0.16,VWS V14.01,2013-10-06 01:03:00,
2013-10-05 21:08:00,57.9,57.9,30.01,East,81,0.0,4.0,100,0.00,,OVC035,0.16,VWS V14.01,2013-10-06 01:08:00,
2013-10-05 21:13:00,57.9,57.9,30.01,ENE,75,4.0,5.4,100,0.00,,OVC035,0.16,VWS V14.01,2013-10-06 01:13:00,
2013-10-05 21:18:00,57.9,57.9,30.01,NNE,29,3.1,4.0,100,0.00,,OVC035,0.16,VWS V14.01,2013-10-06 01:18:00,
2013-10-05 21:23:00,57.9,57.9,30.01,SE,136,0.0,4.0,100,0.00,,OVC035,0.16,VWS V14.01,2013-10-06 01:23:00,
2013-10-05 21:28:00,57.9,57.9,30.01,ESE,123,0.0,0.0,100,0.00,,OVC035,0.16,VWS V14.01,2013-10-06 01:28:00,
2013-10-05 21:33:00,57.9,57.9,30.01,East,84,2.7,2.7,100,0.00,,-RA,0.16,VWS V14.01,2013-10-06 01:33:00,
2013-10-05 21:38:00,57.9,57.9,30.01,East,89,2.2,4.0,100,0.00,,-RA,0.16,VWS V14.01,2013-10-06 01:38:00,
2013-10-05 21:43:00,57.9,57.9,30.01,ENE,63,2.2,2.7,100,0.00,,-RA,0.16,VWS V14.01,2013-10-06 01:43:00,
2013-10-05 21:48:00,58.1,58.1,30.01,ENE,74,0.0,3.6,100,0.00,,-RA,0.16,VWS V14.01,2013-10-06 01:48:00,
2013-10-05 21:53:00,58.1,58.1,30.01,ENE,68,3.1,3.6,100,0.00,,-RA,0.16,VWS V14.01,2013-10-06 01:53:00,
2013-10-05 21:58:00,58.1,58.1,30.01,ESE,115,0.0,4.0,100,0.00,,-RA,0.16,VWS V14.01,2013-10-06 01:58:00,
2013-10-05 22:03:00,57.9,57.9,30.01,NE,54,4.0,5.8,100,0.00,,OVC180,0.16,VWS V14.01,2013-10-06 02:03:00,
2013-10-05 22:08:00,57.9,57.9,30.01,ENE,76,4.0,4.0,100,0.00,,OVC180,0.16,VWS V14.01,2013-10-06 02:08:00,
2013-10-05 22:13:00,58.1,58.1,30.01,ENE,74,2.7,4.0,100,0.00,,OVC180,0.16,VWS V14.01,2013-10-06 02:13:00,
2013-10-05 22:18:00,57.9,57.9,30.01,East,89,0.0,4.9,100,0.00,,OVC180,0.16,VWS V14.01,2013-10-06 02:18:00,
2013-10-05 22:23:00,57.9,57.9,30.01,ENE,69,0.0,5.4,100,0.00,,OVC180,0.16,VWS V14.01,2013-10-06 02:23:00,
2013-10-05 22:28:00,58.1,58.1,30.01,ENE,78,2.2,3.6,100,0.00,,OVC180,0.16,VWS V14.01,2013-10-06 02:28:00,
2013-10-05 22:33:00,58.1,58.1,30.01,ENE,76,2.7,4.0,100,0.00,,OVC180,0.16,VWS V14.01,2013-10-06 02:33:00,
2013-10-05 22:38:00,57.9,57.9,30.01,ENE,63,3.1,3.6,100,0.00,,OVC180,0.16,VWS V14.01,2013-10-06 02:38:00,
2013-10-05 22:43:00,57.9,57.9,30.01,NE,55,3.6,3.6,100,0.00,,OVC180,0.16,VWS V14.01,2013-10-06 02:43:00,
2013-10-05 22:48:00,57.9,57.9,30.01,ENE,72,4.0,4.0,100,0.00,,OVC180,0.16,VWS V14.01,2013-10-06 02:48:00,
2013-10-05 22:53:00,57.9,57.9,30.01,ENE,75,2.7,4.9,100,0.00,,OVC180,0.16,VWS V14.01,2013-10-06 02:53:00,
2013-10-05 22:58:00,57.9,57.9,30.01,ENE,62,5.4,5.8,100,0.00,,OVC180,0.16,VWS V14.01,2013-10-06 02:58:00,
2013-10-05 23:03:00,57.9,57.9,30.01,East,83,0.0,5.4,100,0.00,,OVC160,0.16,VWS V14.01,2013-10-06 03:03:00,
2013-10-05 23:08:00,57.9,57.9,30.01,ENE,61,5.8,5.8,100,0.00,,OVC160,0.16,VWS V14.01,2013-10-06 03:08:00,
2013-10-05 23:13:00,57.9,57.9,30.01,NE,40,3.1,4.9,100,0.00,,OVC160,0.16,VWS V14.01,2013-10-06 03:13:00,
2013-10-05 23:18:00,57.9,57.9,30.01,NE,47,3.6,5.4,100,0.00,,OVC160,0.16,VWS V14.01,2013-10-06 03:18:00,
2013-10-05 23:23:00,57.9,57.9,30.01,East,80,3.6,5.8,100,0.00,,OVC160,0.16,VWS V14.01,2013-10-06 03:23:00,
2013-10-05 23:28:00,57.9,57.9,30.01,ESE,112,3.1,5.8,100,0.00,,OVC160,0.16,VWS V14.01,2013-10-06 03:28:00,
2013-10-05 23:34:00,57.9,57.9,30.01,NE,41,3.1,5.4,100,0.00,,OVC160,0.16,VWS V14.01,2013-10-06 03:34:00,
2013-10-05 23:39:00,57.9,57.9,30.01,East,88,2.7,3.1,100,0.00,,OVC160,0.16,VWS V14.01,2013-10-06 03:39:00,
2013-10-05 23:44:00,57.9,57.9,30.01,NE,55,2.2,2.7,100,0.00,,OVC160,0.16,VWS V14.01,2013-10-06 03:44:00,
2013-10-05 23:49:00,57.9,57.9,30.01,ENE,66,3.1,4.9,100,0.00,,OVC160,0.16,VWS V14.01,2013-10-06 03:49:00,
2013-10-05 23:54:00,57.9,57.9,30.01,East,82,3.6,4.0,100,0.00,,OVC160,0.16,VWS V14.01,2013-10-06 03:54:00,
2013-10-05 23:59:00,57.7,57.7,29.98,ENE,73,4.9,5.4,100,0.00,,OVC160,0.16,VWS V14.01,2013-10-06 03:59:00,